Regional Weather Roundup
Issued by NWS

Home | Current Version | Previous Version | Graphics & Text | Print | Product List | Glossary On
Versions: 1 2 3 4 5 6 7 8 9 10 11 12 13 14 15 16 17 18 19 20 21 22 23 24 25 26 27 28
000
ASUS45 KSLC 222010
RWRUT

UTAH REGIONAL WEATHER ROUNDUP
NATIONAL WEATHER SERVICE SALT LAKE CITY UT
200 PM MDT FRI JUL 22 2016

UTZ001>011-023>025-222100-

NORTHERN UTAH

CITY           SKY/WX    TMP DP  RH WIND       PRES   REMARKS
BRIGHAM CITY     N/A     96  37  13 S12       30.10F HX  91
HILL AFB       MOSUNNY   93  44  18 W12G20    30.15F
LOGAN          SUNNY     94  44  17 SW7       30.10F HX  90
OGDEN          SUNNY     97  43  15 W12       30.11F HX  93
PROVO AIRPORT  MOSUNNY   97  48  19 S9        30.12F HX  93
SALT LAKE CITY PTSUNNY   93  49  22 N12       30.08F HX  90
VERNAL         SUNNY     89  48  24 MISG      30.21F
WENDOVER       SUNNY     97  32  10 SE12      30.10F HX  91
HEBER CITY     MOSUNNY   91  32  12 SW15G31   30.20F

$$

UTZ012>022-026-027-222100-

SOUTHERN/CENTRAL UTAH

CITY           SKY/WX    TMP DP  RH WIND       PRES   REMARKS
BLANDING       MOSUNNY   88  48  25 SE6       30.38F
BRYCE CANYON   LGT RAIN  73  48  41 W9        30.47S
CEDAR CITY     SUNNY     96  42  15 SW15G24   30.24F HX  92
DELTA          SUNNY     97  36  11 SW8G22    30.14F HX  92
MILFORD        SUNNY     97  38  13 SW14G28   30.17F HX  92
MOAB/CYNLANDS  SUNNY     97  50  20 VRB3      30.14F HX  94
PRICE          MOSUNNY   87  49  26 SW9G18    30.28F
ST GEORGE      PTCLDY   104  46  14 W8        30.04F HX 100
KANAB          MOSUNNY  100  43  14 SW10G18   30.23F HX  96

$$

REGIONAL REPORTS     COLORADO/ARIZONA

CITY           SKY/WX    TMP DP  RH WIND       PRES   REMARKS
CRAIG, CO      SUNNY     90  39  16 NW9       30.30F
GRAND JUNCTION CLOUDY    89  51  27 S10       30.20F
RIFLE          CLOUDY    89  51  27 SE10      30.25F
MONTROSE       CLOUDY    87  50  27 VRB3      30.29F
CORTEZ         SUNNY     91  51  25 S10       30.30F
PAGE, AZ       SUNNY     98  46  17 E6        30.15F HX  94
GRAND CANYON   MOSUNNY   89  43  20 VRB5      30.37F
KINGMAN        SUNNY    104  44  13 SW17G25   30.11F HX  99
FLAGSTAFF      PTSUNNY   81  48  31 E17       30.40F

$$

REGIONAL REPORTS    NEVADA/IDAHO/WYOMING

CITY           SKY/WX    TMP DP  RH WIND       PRES   REMARKS
LAS VEGAS, NV  MOSUNNY  110  31   6 SW12G18   29.92F HX 102
ELY            SUNNY     91  30  11 S21G31    30.28F
ELKO           SUNNY     91  18   7 SW16G22   30.22F
POCATELLO, ID  MOSUNNY   91  33  12 SW21      30.15F
BURLEY         SUNNY     84  36  18 W10G22    30.14F
EVANSTON, WY   CLOUDY    86  38  18 S18G25    30.33F
ROCK SPRINGS   CLOUDY    86  35  16 SW15G22   30.30F
KEMMERER         N/A     79  45  29 SW6       30.34F

$$




USA.gov is the U.S. government's official web portal to all federal, state and local government web resources and services.